Regional Weather Roundup
Issued by NWS

Home | Current Version | Previous Version | Graphics & Text | Print | Product List | Glossary On
Versions: 1 2 3 4 5 6 7 8 9 10 11 12 13 14 15 16 17 18 19 20 21 22 23 24 25 26 27 28 29 30 31 32 33 34 35 36 37 38 39 40 41 42 43 44 45 46 47 48 49 50
000
ASUS43 KLMK 251502
RWRKY
KENTUCKY REGIONAL WEATHER ROUNDUP
NATIONAL WEATHER SERVICE LOUISVILLE KY
1100 AM EDT WED MAY 25 2016

NOTE "FAIR" INDICATES FEW OR NO CLOUDS BELOW 12,000 FEET
WITH NO SIGNIFICANT WEATHER AND/OR OBSTRUCTIONS TO VISIBILITY.

KYZ001>023-026-027-061>063-070>075-251600-
WESTERN AND SOUTH CENTRAL KENTUCKY

CITY           SKY/WX    TMP DP  RH WIND       PRES   REMARKS
PADUCAH        TSTM      66  64  93 CALM      30.10S FOG
HENDERSON      CLOUDY    73  63  68 S8        30.08S
OWENSBORO      CLOUDY    76  69  79 SW12      30.10F
HOPKINSVILLE   CLOUDY    73  65  75 S9        30.12S
BOWLING GREEN  CLOUDY    77  62  59 S12       30.14F
GLASGOW        NOT AVBL
$$

KYZ024-025-028>034-038-045-046-053-251600-
NORTH CENTRAL KENTUCKY

CITY           SKY/WX    TMP DP  RH WIND       PRES   REMARKS
LOUISVILLE/SDF CLOUDY    72  59  63 SE8       30.11S
LOUISVILLE/LOU CLOUDY    71  58  63 SE5       30.12F
FORT KNOX      PTSUNNY   74  61  63 S10       30.10F
$$

KYZ035>037-039>044-047>052-055>060-089>105-251600-
NORTHEAST KENTUCKY

CITY           SKY/WX    TMP DP  RH WIND       PRES   REMARKS
LEXINGTON      CLOUDY    74  58  57 S10       30.16S
COVINGTON      CLOUDY    70  57  63 S6        30.14R
FRANKFORT      CLOUDY    73  57  57 S5        30.14S
$$

KYZ054-064>069-076>088-106>120-251600-
SOUTHEAST KENTUCKY

CITY           SKY/WX    TMP DP  RH WIND       PRES   REMARKS
JACKSON        SUNNY     73  56  54 VRB5      30.21F
LONDON         CLOUDY    72  56  57 SE6       30.21F
SOMERSET       NOT AVBL
MIDDLESBORO    SUNNY     75  55  50 S7        30.25F
MONTICELLO     CLOUDY    72  61  68 E8        30.21F
$$





USA.gov is the U.S. government's official web portal to all federal, state and local government web resources and services.